[[{"header":{"parameterUnit":"m.s-1","parameterCategory":1,"la1":30.2991,"la2":30.254,"lo1":-89.0895,"lo2":-89.0444,"dy":0.0017,"dx":0.0017,"nx":28,"ny":28,"refTime":"2023-04-20T21:00:00:Z","depth":0,"parameterNumber":2,"parameterNumberName":"U-component_of_WINDS"},"data":[0,0,0,0,0,0,0,0,0,0,0,0,0,0,0,0,0,0,0,0,0,0,0,0,0,0,0,0,0,0,0,0,0,0,0,0,0,0,0,0,0,0,0,0,0,0,0,0,0,0,0,0,0,0,0,0,0,0,-2.5898,-2.5897,0,-2.5887,-2.5887,-2.5887,-2.5832,-2.5831,-2.5829,-2.5828,-2.5818,-2.5819,-2.582,0,0,0,0,0,0,0,0,0,0,0,0,0,-2.5872,-2.5872,-2.5898,-2.5897,-2.5897,-2.5887,-2.5887,-2.5887,-2.5832,-2.5831,-2.5829,-2.5827,-2.5818,-2.5819,-2.582,0,0,0,0,0,0,0,0,0,0,0,0,0,-2.5874,-2.5873,-2.5898,-2.5869,-2.5866,-2.5887,-2.5887,-2.5887,-2.5832,-2.5831,-2.5829,-2.5827,-2.5817,-2.5819,-2.582,-2.5868,0,0,-2.5825,-2.5825,0,0,0,0,0,0,0,0,-2.5874,-2.5875,-2.5873,-2.5871,-2.5868,-2.5859,-2.5874,-2.588,-2.5833,-2.5845,-2.5828,-2.5826,-2.5833,-2.5833,-2.5836,-2.5868,-2.5867,-2.5825,-2.5826,-2.5826,-2.5827,0,0,0,0,0,0,0,-2.5874,-2.5875,-2.5893,-2.5873,-2.587,-2.5857,-2.5855,-2.5875,-2.585,-2.5844,-2.584,-2.584,-2.5831,-2.5834,-2.5835,-2.5867,-2.5825,-2.5826,-2.5827,-2.5827,-2.5938,-2.594,0,0,0,0,0,0,-2.5878,-2.5876,-2.5894,-2.5893,-2.5866,-2.5859,-2.5857,-2.5864,-2.585,-2.5846,-2.5841,-2.5837,-2.5833,-2.5833,-2.5834,-2.589,-2.5826,-2.5828,-2.5828,-2.5936,-2.5939,-2.5941,0,0,0,0,0,0,-2.5877,-2.588,-2.5894,-2.5883,-2.5884,-2.5861,-2.5869,-2.5864,-2.5867,-2.5848,-2.5843,-2.5849,-2.5831,-2.5832,-2.586,-2.5889,-2.5828,-2.5829,-2.5934,-2.5937,-2.594,-2.6001,0,0,0,0,0,0,-2.5877,-2.588,-2.5898,-2.5884,-2.5885,-2.592,-2.5871,-2.5866,-2.587,-2.5864,-2.5854,-2.585,-2.583,-2.5858,-2.5862,-2.589,-2.5831,-2.5931,-2.5935,-2.5939,-2.5997,-2.6006,-2.6014,0,0,0,0,0,-2.5876,-2.5916,-2.5899,-2.5902,-2.5907,-2.5922,-2.5922,-2.5898,-2.5872,-2.589,-2.5878,-2.585,-2.5885,-2.5862,-2.5865,-2.5894,-2.5929,-2.5934,-2.5939,-2.5993,-2.6004,-2.6014,0,0,0,0,0,0,-2.5934,-2.5913,-2.5895,-2.5931,-2.5929,-2.5912,-2.5934,-2.5911,-2.5916,-2.5911,-2.5881,-2.5879,-2.5911,-2.5905,-2.5879,-2.594,-2.5902,-2.5908,-2.5943,-2.5953,-2.5962,-2.5963,-2.5832,0,0,0,0,0,-2.5951,-2.5965,-2.5946,-2.598,-2.598,-2.5957,-2.5963,-2.5945,-2.5941,-2.594,-2.5929,-2.5927,-2.5937,-2.5945,-2.5953,-2.5995,-2.5992,-2.6017,-2.6026,-2.6033,-2.6038,-2.6061,-2.6071,-2.5956,-2.5956,-2.5956,0,0,-2.5986,-2.5977,-2.5987,-2.5991,-2.5987,-2.6003,-2.5957,-2.5975,-2.5986,-2.5942,-2.5968,-2.596,-2.5956,-2.5991,-2.6006,-2.5987,-2.6069,-2.6039,-2.6045,-2.6046,-2.6067,-2.6077,-2.6087,-2.596,-2.5959,-2.5959,0,0,-2.6058,-2.6052,-2.608,-2.6077,-2.6071,-2.6056,-2.6063,-2.605,-2.6043,-2.6068,-2.6036,-2.6049,-2.6067,-2.6066,-2.6067,-2.6139,-2.6114,-2.6142,-2.6189,-2.6211,-2.622,-2.6228,-2.6254,-2.6264,-2.6148,-2.6148,-2.6148,0,-2.6103,-2.6125,-2.6097,-2.6117,-2.612,-2.6081,-2.6109,-2.6107,-2.6105,-2.6108,-2.6087,-2.6109,-2.6103,-2.6138,-2.6155,-2.6158,-2.6165,-2.6144,-2.6221,-2.6228,-2.6235,-2.626,-2.627,-2.6151,-2.6151,-2.6151,-2.615,0,-2.618,-2.6195,-2.6218,-2.6217,-2.6222,-2.6246,-2.6223,-2.6232,-2.6213,-2.62,-2.6227,-2.6218,-2.6224,-2.6231,-2.6213,-2.6263,-2.6252,-2.6226,-2.6188,-2.625,-2.6273,-2.6282,-2.6156,-2.6155,-2.6154,-2.6153,0,0,-2.6289,-2.6272,-2.6281,-2.628,-2.627,-2.6282,-2.6304,-2.631,-2.6318,-2.6318,-2.6336,-2.6353,-2.6329,-2.6331,-2.6312,-2.6331,-2.6389,-2.6303,-2.6302,-2.632,-2.6445,-2.6465,-2.6476,-2.6372,-2.6374,-2.6375,-2.6445,0,-2.6359,-2.6396,-2.6372,-2.6413,-2.6427,-2.639,-2.6409,-2.6406,-2.6395,-2.6405,-2.6393,-2.6405,-2.6372,-2.6373,-2.6391,-2.6379,-2.6414,-2.6373,-2.639,-2.6391,-2.6393,-2.6488,-2.6509,-2.6576,-2.6454,-2.6456,-2.6457,0,-2.6445,-2.6448,-2.6491,-2.6478,-2.6483,-2.6502,-2.6505,-2.6515,-2.6511,-2.6501,-2.6503,-2.648,-2.6501,-2.6464,-2.6493,-2.6466,-2.6471,-2.6466,-2.6468,-2.647,-2.6428,-2.6492,-2.6596,-2.6607,-2.647,-2.6469,-2.6468,0,-2.6521,-2.6536,-2.6563,-2.6563,-2.655,-2.6563,-2.6558,-2.6552,-2.6557,-2.656,-2.6563,-2.6569,-2.6572,-2.6577,-2.6556,-2.653,-2.6589,-2.6549,-2.6582,-2.6583,-2.6596,-2.6596,-2.6703,-2.6599,-2.6599,-2.6599,-2.6598,0,-2.6602,-2.6629,-2.6597,-2.6614,-2.6644,-2.6616,-2.6647,-2.6638,-2.6632,-2.6647,-2.6615,-2.663,-2.6601,-2.6612,-2.6596,-2.6623,-2.6625,-2.6618,-2.6614,-2.6621,-2.6622,-2.6625,-2.662,-2.6601,-2.6601,-2.66,-2.66,0,-2.6692,-2.6672,-2.6699,-2.6684,-2.6681,-2.6704,-2.6691,-2.6706,-2.6692,-2.6712,-2.6714,-2.6693,-2.6706,-2.6685,-2.6694,-2.6683,-2.6722,-2.6709,-2.6723,-2.672,-2.6754,-2.6752,-2.6868,-2.6882,-2.6768,-2.6769,-2.677,0,-2.6745,-2.6766,-2.6753,-2.676,-2.6757,-2.6769,-2.6774,-2.6748,-2.6754,-2.6751,-2.6766,-2.6776,-2.6782,-2.6804,-2.679,-2.6797,-2.6785,-2.6825,-2.6786,-2.6794,-2.6787,-2.6786,-2.6788,-2.6834,-2.6835,-2.6836,-2.6837,0,-2.6842,-2.6831,-2.6839,-2.6844,-2.6851,-2.6853,-2.6853,-2.6861,-2.6833,-2.6842,-2.6854,-2.6859,-2.6869,-2.6879,-2.6883,-2.6878,-2.6854,-2.6849,-2.6858,-2.6866,-2.6874,-2.6871,-2.6746,-2.6847,-2.6846,-2.6845,-2.6845,-2.6844,-2.6916,-2.6933,-2.6926,-2.6936,-2.6933,-2.6934,-2.6948,-2.6936,-2.6945,-2.6951,-2.6935,-2.6951,-2.6946,-2.6948,-2.6946,-2.6959,-2.6941,-2.6953,-2.6956,-2.6959,-2.6965,-2.6871,-2.6959,-2.6959,-2.6959,-2.6958,-2.6958,0,-2.7012,-2.7006,-2.7015,-2.7017,-2.7025,-2.7,-2.6999,-2.7008,-2.7022,-2.7019,-2.7026,-2.704,-2.7049,-2.7036,-2.7043,-2.7056,-2.7045,-2.7059,-2.7058,-2.7057,-2.698,-2.6973,-2.7068,-2.7068,-2.7068,-2.7068,-2.7068,-2.7068,-2.7063,-2.709,-2.7078,-2.7103,-2.7096,-2.7111,-2.7113,-2.7114,-2.7112,-2.7129,-2.7136,-2.7127,-2.712,-2.7127,-2.7135,-2.713,-2.7135,-2.7153,-2.7145,-2.7073,-2.7063,-2.7053,-2.7045,-2.7154,-2.7154,-2.7221,-2.7222,-2.7223]},{"header":{"parameterUnit":"m.s-1","parameterCategory":1,"la1":30.2991,"la2":30.254,"lo1":-89.0895,"lo2":-89.0444,"dy":0.0017,"dx":0.0017,"nx":28,"ny":28,"refTime":"2023-04-20T21:00:00:Z","depth":0,"parameterNumber":3,"parameterNumberName":"V-component_of_WINDS"},"data":[0,0,0,0,0,0,0,0,0,0,0,0,0,0,0,0,0,0,0,0,0,0,0,0,0,0,0,0,0,0,0,0,0,0,0,0,0,0,0,0,0,0,0,0,0,0,0,0,0,0,0,0,0,0,0,0,0,0,-6.8553,-6.8553,0,-6.8601,-6.8601,-6.8602,-6.8533,-6.853,-6.8528,-6.8526,-6.857,-6.8573,-6.8576,0,0,0,0,0,0,0,0,0,0,0,0,0,-6.8397,-6.84,-6.8553,-6.8553,-6.8554,-6.8601,-6.8601,-6.8602,-6.8533,-6.853,-6.8527,-6.8525,-6.8568,-6.8573,-6.8577,0,0,0,0,0,0,0,0,0,0,0,0,0,-6.8457,-6.8401,-6.8553,-6.8525,-6.8524,-6.8601,-6.8601,-6.8602,-6.8534,-6.853,-6.8527,-6.8523,-6.8567,-6.8572,-6.8577,-6.8682,0,0,-6.8593,-6.8595,0,0,0,0,0,0,0,0,-6.8453,-6.8462,-6.8529,-6.8527,-6.8525,-6.8557,-6.8562,-6.8629,-6.8535,-6.853,-6.8526,-6.8521,-6.8568,-6.8573,-6.859,-6.8684,-6.8686,-6.8593,-6.8596,-6.8599,-6.86,0,0,0,0,0,0,0,-6.8449,-6.846,-6.8572,-6.853,-6.8528,-6.8509,-6.8514,-6.8575,-6.8568,-6.853,-6.8525,-6.8532,-6.8566,-6.8585,-6.859,-6.8686,-6.8593,-6.8598,-6.8601,-6.8603,-6.8869,-6.8873,0,0,0,0,0,0,-6.8449,-6.8457,-6.857,-6.8573,-6.848,-6.8515,-6.852,-6.8551,-6.8568,-6.8567,-6.8535,-6.8529,-6.8578,-6.8584,-6.8591,-6.8716,-6.8599,-6.8603,-6.8606,-6.8865,-6.887,-6.8874,0,0,0,0,0,0,-6.8446,-6.846,-6.8568,-6.8514,-6.8526,-6.8522,-6.8556,-6.8553,-6.8572,-6.8572,-6.857,-6.8556,-6.8575,-6.8584,-6.866,-6.8716,-6.8606,-6.861,-6.886,-6.8867,-6.8872,-6.8965,0,0,0,0,0,0,-6.8442,-6.8459,-6.85,-6.8515,-6.8529,-6.8638,-6.856,-6.8557,-6.8582,-6.8574,-6.859,-6.8589,-6.8573,-6.8653,-6.8665,-6.8721,-6.8614,-6.8855,-6.8863,-6.887,-6.8957,-6.8973,-6.8987,0,0,0,0,0,-6.8436,-6.8523,-6.8502,-6.8516,-6.858,-6.8641,-6.8649,-6.863,-6.8586,-6.8627,-6.8627,-6.8589,-6.8708,-6.8661,-6.8675,-6.8733,-6.8852,-6.8861,-6.887,-6.895,-6.897,-6.8987,0,0,0,0,0,0,-6.8511,-6.8524,-6.8502,-6.8596,-6.8618,-6.8629,-6.868,-6.8652,-6.8686,-6.8677,-6.865,-6.8654,-6.8736,-6.8742,-6.8689,-6.8835,-6.8772,-6.8785,-6.8829,-6.8848,-6.8863,-6.886,-6.8619,0,0,0,0,0,-6.854,-6.859,-6.8597,-6.8679,-6.8692,-6.8684,-6.871,-6.8694,-6.8715,-6.8723,-6.8729,-6.875,-6.8792,-6.882,-6.8859,-6.8957,-6.896,-6.9004,-6.9019,-6.9032,-6.9043,-6.9096,-6.9116,-6.8904,-6.8904,-6.8903,0,0,-6.8597,-6.861,-6.8643,-6.8695,-6.871,-6.8761,-6.8692,-6.8749,-6.8787,-6.8731,-6.8805,-6.8809,-6.8831,-6.8919,-6.8958,-6.8926,-6.9102,-6.9043,-6.9053,-6.9057,-6.9107,-6.9127,-6.9145,-6.891,-6.8909,-6.8908,0,0,-6.8728,-6.8743,-6.8814,-6.8831,-6.8857,-6.8851,-6.8868,-6.8884,-6.8886,-6.8959,-6.8919,-6.8962,-6.9035,-6.9053,-6.9071,-6.9211,-6.9177,-6.9224,-6.9304,-6.9356,-6.9373,-6.9387,-6.9438,-6.9456,-6.9234,-6.9235,-6.9235,0,-6.8795,-6.8873,-6.8853,-6.8914,-6.8938,-6.8892,-6.8963,-6.898,-6.9016,-6.9033,-6.8998,-6.909,-6.9101,-6.9193,-6.9227,-6.9243,-6.9261,-6.9222,-6.9372,-6.9387,-6.94,-6.9448,-6.9467,-6.924,-6.9239,-6.9239,-6.9238,0,-6.8955,-6.901,-6.9063,-6.9102,-6.9132,-6.9197,-6.9186,-6.9218,-6.92,-6.9198,-6.9273,-6.9285,-6.9326,-6.9346,-6.9327,-6.9436,-6.9416,-6.9377,-6.9313,-6.9426,-6.9471,-6.9489,-6.9248,-6.9246,-6.9244,-6.9243,0,0,-6.9134,-6.9163,-6.9183,-6.9201,-6.9226,-6.9266,-6.9329,-6.9372,-6.94,-6.9426,-6.9478,-6.9542,-6.9507,-6.9527,-6.951,-6.9556,-6.9667,-6.9511,-6.9511,-6.954,-6.9788,-6.9818,-6.9839,-6.9645,-6.9648,-6.9651,-6.9786,0,-6.9266,-6.9378,-6.9362,-6.9469,-6.9519,-6.9477,-6.9532,-6.9553,-6.9553,-6.9594,-6.9592,-6.9639,-6.9588,-6.9601,-6.9644,-6.9644,-6.9716,-6.9634,-6.9692,-6.9695,-6.9689,-6.9863,-6.9894,-7.0022,-6.9804,-6.9806,-6.9809,0,-6.9435,-6.9471,-6.9583,-6.9602,-6.9622,-6.9672,-6.971,-6.975,-6.9773,-6.9769,-6.9794,-6.9768,-6.983,-6.9766,-6.985,-6.9795,-6.9818,-6.9821,-6.9826,-6.9831,-6.9759,-6.9873,-7.0062,-7.0081,-6.9836,-6.9833,-6.9831,0,-6.9556,-6.9631,-6.9709,-6.9725,-6.9748,-6.9785,-6.9796,-6.9815,-6.9841,-6.9874,-6.9891,-6.9929,-6.995,-6.998,-6.9966,-6.992,-7.0053,-6.9987,-7.0052,-7.0053,-7.0082,-7.0081,-7.0278,-7.0096,-7.0096,-7.0095,-7.0095,0,-6.9705,-6.9776,-6.9764,-6.9812,-6.989,-6.987,-6.9947,-6.9953,-6.997,-7.0017,-6.9982,-7.0027,-7.0004,-7.0047,-7.0036,-7.0108,-7.0118,-7.0116,-7.0112,-7.012,-7.012,-7.0135,-7.0126,-7.01,-7.0099,-7.0098,-7.0097,0,-6.9854,-6.9848,-6.993,-6.9947,-6.9953,-7.0009,-7.0022,-7.0067,-7.0064,-7.0124,-7.0137,-7.0133,-7.0182,-7.017,-7.0222,-7.0214,-7.0306,-7.0291,-7.03,-7.0296,-7.0362,-7.0357,-7.0576,-7.0604,-7.0403,-7.0405,-7.0407,0,-6.995,-7.0004,-7.0027,-7.0057,-7.0072,-7.0121,-7.0148,-7.0131,-7.0161,-7.0192,-7.0232,-7.0278,-7.0314,-7.0393,-7.0394,-7.0434,-7.042,-7.0494,-7.0425,-7.0432,-7.0422,-7.0419,-7.0425,-7.0508,-7.051,-7.0512,-7.0513,0,-7.0121,-7.0117,-7.0159,-7.0202,-7.0237,-7.0269,-7.0297,-7.0323,-7.0308,-7.0343,-7.0394,-7.0422,-7.0477,-7.0523,-7.056,-7.0569,-7.0539,-7.0535,-7.0552,-7.0561,-7.0564,-7.0564,-7.0338,-7.053,-7.0528,-7.0527,-7.0526,-7.0526,-7.0247,-7.0294,-7.0318,-7.0367,-7.0387,-7.0414,-7.0458,-7.0461,-7.0504,-7.0549,-7.0535,-7.0593,-7.0614,-7.0661,-7.0675,-7.0719,-7.0691,-7.0716,-7.0722,-7.0729,-7.0738,-7.0557,-7.0726,-7.0725,-7.0725,-7.0724,-7.0724,0,-7.0418,-7.0432,-7.0477,-7.0519,-7.0558,-7.0528,-7.0558,-7.0591,-7.0644,-7.0667,-7.0704,-7.0762,-7.0807,-7.0811,-7.0853,-7.0888,-7.0875,-7.0899,-7.0897,-7.09,-7.076,-7.0741,-7.0909,-7.0909,-7.0909,-7.0909,-7.0909,-7.0909,-7.0511,-7.0589,-7.0587,-7.0674,-7.0687,-7.0745,-7.0765,-7.079,-7.0809,-7.0876,-7.0914,-7.0918,-7.0933,-7.0976,-7.1016,-7.1016,-7.1033,-7.1063,-7.1058,-7.0928,-7.0909,-7.0892,-7.0874,-7.1067,-7.1067,-7.1194,-7.1195,-7.1196]}]]